Zurück zum Katalog

CZ-6A DEB

AktivPO
NORAD 54902·DEBRIS·🇨🇳 China

Gestartet Nov 11, 2022 von Taiyuan Satellite Launch Center

Loading…

Nächste Überflüge (nächste 24 Stunden)

TLE

AktuellSource: Space-Track

Epoche: Sep 13, 2026, 17:48 UTC

1 54902U 22151QP  26256.74212781  .00040416  00000-0  27153-2 0  9999
2 54902  98.6040 344.1463 0028751 300.6364  59.2026 15.06317491204073

Verfolge CZ-6A DEB in Echtzeit mit AllMySat

Download on the App Store